| time (UTC) | temp C | wind direction | speed KPH | gust KPH | rain 1hr cm | rain 24hr cm | rain mn cm | humidity % | barometer mb |
| 20260510164707 | 20 | 344 | 1.6 | 4.8 | 0.00 | 0.48 | 0.03 | 67 | 1012.0 |
| 20260510164204 | 20 | 315 | 1.6 | 4.8 | 0.00 | 0.48 | 0.03 | 65 | 1012.0 |
| 20260510163707 | 21 | 240 | 1.6 | 6.4 | 0.00 | 0.51 | 0.03 | 68 | 1012.1 |
| 20260510163206 | 21 | 184 | 1.6 | 6.4 | 0.00 | 0.51 | 0.03 | 66 | 1012.0 |
| 20260510162708 | 20 | 236 | 1.6 | 6.4 | 0.00 | 0.51 | 0.03 | 70 | 1011.7 |
| 20260510162205 | 20 | 288 | 1.6 | 8.0 | 0.00 | 0.51 | 0.03 | 69 | 1011.7 |
| 20260510161706 | 20 | 225 | 1.6 | 8.0 | 0.00 | 0.51 | 0.03 | 69 | 1011.9 |
| 20260510161203 | 20 | 282 | 1.6 | 4.8 | 0.00 | 0.51 | 0.03 | 69 | 1012.0 |
| 20260510160706 | 20 | 205 | 1.6 | 4.8 | 0.00 | 0.53 | 0.03 | 72 | 1012.1 |
| 20260510160204 | 20 | 311 | 1.6 | 4.8 | 0.00 | 0.53 | 0.03 | 72 | 1012.1 |
| 20260510155705 | 19 | 217 | 1.6 | 4.8 | 0.00 | 0.53 | 0.03 | 71 | 1012.1 |
| 20260510155205 | 19 | 323 | 1.6 | 4.8 | 0.00 | 0.56 | 0.03 | 71 | 1012.1 |
| 20260510154707 | 19 | 204 | 1.6 | 4.8 | 0.00 | 0.56 | 0.03 | 72 | 1012.1 |
| 20260510154205 | 19 | 265 | 1.6 | 4.8 | 0.00 | 0.56 | 0.03 | 74 | 1012.3 |
| 20260510153705 | 19 | 257 | 1.6 | 4.8 | 0.00 | 0.58 | 0.03 | 71 | 1012.3 |
| 20260510152705 | 19 | 222 | 1.6 | 6.4 | 0.00 | 0.58 | 0.03 | 71 | 1012.3 |
| 20260510152203 | 19 | 219 | 1.6 | 4.8 | 0.00 | 0.58 | 0.03 | 73 | 1012.2 |
| 20260510151203 | 19 | 261 | 1.6 | 8.0 | 0.00 | 0.58 | 0.03 | 72 | 1012.1 |
| 20260510150708 | 19 | 232 | 3.2 | 8.0 | 0.00 | 0.58 | 0.03 | 73 | 1012.2 |
| 20260510150204 | 19 | 306 | 1.6 | 6.4 | 0.00 | 0.58 | 0.03 | 74 | 1012.0 |
| 20260510145706 | 19 | 326 | 1.6 | 6.4 | 0.00 | 0.58 | 0.03 | 76 | 1012.2 |
| 20260510145204 | 18 | 294 | 1.6 | 6.4 | 0.00 | 0.58 | 0.03 | 78 | 1012.0 |
| 20260510144706 | 18 | 109 | 1.6 | 8.0 | 0.00 | 0.58 | 0.03 | 78 | 1012.2 |
| 20260510144204 | 18 | 277 | 1.6 | 8.0 | 0.00 | 0.58 | 0.03 | 81 | 1012.0 |
| 20260510143706 | 18 | 218 | 1.6 | 4.8 | 0.00 | 0.58 | 0.03 | 86 | 1012.1 |
| 20260510142707 | 16 | 324 | 1.6 | 4.8 | 0.00 | 0.58 | 0.03 | 92 | 1012.0 |
| 20260510141708 | 16 | 275 | 1.6 | 4.8 | 0.00 | 0.61 | 0.03 | 93 | 1012.0 |
| 20260510141205 | 16 | 307 | 1.6 | 4.8 | 0.00 | 0.61 | 0.03 | 94 | 1012.1 |
| 20260510140707 | 15 | 214 | 1.6 | 4.8 | 0.00 | 0.61 | 0.03 | 94 | 1012.1 |
| 20260510140205 | 15 | 282 | 1.6 | 4.8 | 0.00 | 0.61 | 0.03 | 94 | 1011.7 |
| 20260510135705 | 15 | 74 | 1.6 | 4.8 | 0.00 | 0.61 | 0.03 | 94 | 1011.9 |
| 20260510135204 | 15 | 16 | 1.6 | 4.8 | 0.00 | 0.61 | 0.03 | 94 | 1012.1 |
| 20260510134706 | 15 | 328 | 1.6 | 3.2 | 0.00 | 0.61 | 0.03 | 94 | 1012.1 |
| 20260510134205 | 15 | 323 | 1.6 | 3.2 | 0.00 | 0.61 | 0.03 | 94 | 1012.1 |
| 20260510133705 | 14 | 290 | 0.0 | 3.2 | 0.00 | 0.61 | 0.03 | 94 | 1012.1 |
| 20260510133204 | 14 | 327 | 0.0 | 3.2 | 0.00 | 0.61 | 0.03 | 94 | 1012.3 |
| 20260510132204 | 14 | 124 | 0.0 | 3.2 | 0.00 | 0.61 | 0.03 | 94 | 1012.4 |
| 20260510131707 | 13 | 223 | 0.0 | 3.2 | 0.00 | 0.61 | 0.03 | 94 | 1012.4 |
| 20260510131204 | 13 | 223 | 0.0 | 4.8 | 0.00 | 0.61 | 0.03 | 94 | 1012.4 |
| 20260510130203 | 12 | 294 | 0.0 | 3.2 | 0.00 | 0.61 | 0.03 | 94 | 1012.1 |
| 20260510125706 | 12 | 278 | 0.0 | 1.6 | 0.00 | 0.61 | 0.03 | 94 | 1012.1 |
| 20260510125205 | 12 | 278 | 0.0 | 1.6 | 0.00 | 0.61 | 0.03 | 94 | 1012.1 |
| 20260510124705 | 11 | 278 | 0.0 | 1.6 | 0.00 | 0.61 | 0.03 | 94 | 1012.4 |
| 20260510124206 | 11 | 278 | 0.0 | 1.6 | 0.00 | 0.61 | 0.03 | 94 | 1012.2 |
| 20260510123706 | 11 | 278 | 0.0 | 1.6 | 0.00 | 0.61 | 0.03 | 93 | 1012.2 |
| 20260510122706 | 10 | 281 | 0.0 | 1.6 | 0.00 | 0.61 | 0.03 | 93 | 1012.0 |
| 20260510122204 | 10 | 281 | 0.0 | 0.0 | 0.00 | 0.61 | 0.03 | 93 | 1012.1 |
| 20260510121706 | 10 | 281 | 0.0 | 0.0 | 0.00 | 0.61 | 0.03 | 93 | 1011.7 |
| 20260510121203 | 10 | 281 | 0.0 | 0.0 | 0.00 | 0.61 | 0.03 | 93 | 1011.7 |
| 20260510120706 | 10 | 281 | 0.0 | 1.6 | 0.00 | 0.61 | 0.03 | 93 | 1011.6 |
| 20260510120207 | 10 | 281 | 0.0 | 1.6 | 0.00 | 0.61 | 0.03 | 93 | 1011.6 |
| 20260510115705 | 10 | 281 | 0.0 | 1.6 | 0.00 | 0.61 | 0.03 | 93 | 1011.5 |
| 20260510115206 | 10 | 274 | 0.0 | 0.0 | 0.00 | 0.61 | 0.03 | 93 | 1011.4 |
| 20260510114703 | 10 | 274 | 0.0 | 0.0 | 0.00 | 0.61 | 0.03 | 93 | 1011.4 |
| 20260510114204 | 10 | 244 | 0.0 | 0.0 | 0.00 | 0.64 | 0.03 | 93 | 1011.4 |
| 20260510113706 | 10 | 52 | 0.0 | 0.0 | 0.00 | 0.64 | 0.03 | 93 | 1011.5 |
| 20260510113206 | 10 | 52 | 0.0 | 0.0 | 0.00 | 0.64 | 0.03 | 93 | 1011.5 |
| 20260510112705 | 10 | 52 | 0.0 | 0.0 | 0.00 | 0.64 | 0.03 | 93 | 1011.3 |
| 20260510112204 | 10 | 52 | 0.0 | 0.0 | 0.00 | 0.64 | 0.03 | 93 | 1011.4 |
| 20260510111705 | 9 | 52 | 0.0 | 0.0 | 0.00 | 0.64 | 0.03 | 93 | 1011.3 |
| 20260510111206 | 9 | 57 | 0.0 | 0.0 | 0.00 | 0.64 | 0.03 | 93 | 1011.1 |
| 20260510110706 | 9 | 57 | 0.0 | 0.0 | 0.00 | 0.64 | 0.03 | 93 | 1011.0 |
| 20260510110204 | 9 | 57 | 0.0 | 0.0 | 0.00 | 0.64 | 0.03 | 92 | 1011.0 |
| 20260510105706 | 9 | 57 | 0.0 | 0.0 | 0.00 | 0.64 | 0.03 | 93 | 1010.9 |
| 20260510105206 | 9 | 57 | 0.0 | 0.0 | 0.00 | 0.64 | 0.03 | 93 | 1011.0 |
| 20260510104704 | 9 | 57 | 0.0 | 0.0 | 0.00 | 0.64 | 0.03 | 92 | 1011.1 |
| 20260510104204 | 9 | 57 | 0.0 | 0.0 | 0.00 | 0.64 | 0.03 | 93 | 1011.0 |
| 20260510103205 | 9 | 57 | 0.0 | 0.0 | 0.00 | 0.64 | 0.03 | 93 | 1010.8 |
| 20260510102705 | 9 | 57 | 0.0 | 0.0 | 0.00 | 0.64 | 0.03 | 92 | 1010.9 |
| 20260510102204 | 9 | 57 | 0.0 | 0.0 | 0.00 | 0.64 | 0.03 | 92 | 1010.8 |
| 20260510101706 | 9 | 57 | 0.0 | 0.0 | 0.00 | 0.64 | 0.03 | 92 | 1010.9 |
| 20260510101205 | 9 | 57 | 0.0 | 0.0 | 0.00 | 0.64 | 0.03 | 92 | 1010.8 |
| 20260510100704 | 9 | 57 | 0.0 | 0.0 | 0.00 | 0.64 | 0.03 | 92 | 1010.7 |
| 20260510100203 | 9 | 57 | 0.0 | 0.0 | 0.00 | 0.64 | 0.03 | 92 | 1010.6 |
| 20260510095705 | 9 | 57 | 0.0 | 0.0 | 0.00 | 0.64 | 0.03 | 93 | 1010.4 |
| 20260510094706 | 9 | 57 | 0.0 | 0.0 | 0.00 | 0.64 | 0.03 | 93 | 1010.4 |
| 20260510094206 | 9 | 57 | 0.0 | 1.6 | 0.00 | 0.64 | 0.03 | 93 | 1010.5 |
| 20260510093705 | 9 | 57 | 0.0 | 1.6 | 0.00 | 0.64 | 0.03 | 92 | 1010.5 |
| 20260510093206 | 9 | 57 | 0.0 | 1.6 | 0.00 | 0.64 | 0.03 | 93 | 1010.4 |
| 20260510092707 | 9 | 57 | 0.0 | 1.6 | 0.00 | 0.64 | 0.03 | 93 | 1010.2 |
| 20260510092205 | 9 | 57 | 0.0 | 1.6 | 0.00 | 0.64 | 0.03 | 92 | 1010.0 |
| 20260510091703 | 9 | 5 | 0.0 | 3.2 | 0.00 | 0.64 | 0.03 | 92 | 1010.1 |
| 20260510091206 | 9 | 5 | 0.0 | 3.2 | 0.00 | 0.64 | 0.03 | 92 | 1010.3 |
| 20260510090706 | 9 | 32 | 0.0 | 3.2 | 0.00 | 0.64 | 0.03 | 92 | 1010.1 |
| 20260510090204 | 9 | 49 | 0.0 | 3.2 | 0.00 | 0.64 | 0.03 | 92 | 1010.0 |
| 20260510085705 | 9 | 59 | 0.0 | 3.2 | 0.00 | 0.64 | 0.03 | 92 | 1010.0 |
| 20260510084705 | 9 | 77 | 0.0 | 3.2 | 0.00 | 0.64 | 0.03 | 92 | 1010.2 |
| 20260510084205 | 9 | 67 | 0.0 | 1.6 | 0.00 | 0.64 | 0.03 | 92 | 1010.2 |
| 20260510083706 | 9 | 67 | 0.0 | 1.6 | 0.00 | 0.64 | 0.03 | 92 | 1010.4 |
| 20260510083205 | 9 | 81 | 0.0 | 1.6 | 0.00 | 0.64 | 0.03 | 92 | 1010.4 |
| 20260510082206 | 9 | 86 | 0.0 | 4.8 | 0.00 | 0.64 | 0.03 | 92 | 1010.4 |
| 20260510081706 | 9 | 65 | 0.0 | 4.8 | 0.00 | 0.64 | 0.03 | 92 | 1010.3 |
| 20260510081205 | 9 | 36 | 0.0 | 1.6 | 0.00 | 0.64 | 0.03 | 92 | 1010.4 |
| 20260510080705 | 9 | 67 | 0.0 | 1.6 | 0.00 | 0.64 | 0.03 | 92 | 1010.6 |
| 20260510080203 | 9 | 31 | 0.0 | 3.2 | 0.00 | 0.64 | 0.03 | 92 | 1010.6 |
| 20260510075203 | 9 | 82 | 0.0 | 3.2 | 0.00 | 0.64 | 0.03 | 92 | 1010.8 |
| 20260510074704 | 9 | 82 | 0.0 | 3.2 | 0.00 | 0.66 | 0.03 | 92 | 1010.7 |
| 20260510074204 | 9 | 90 | 0.0 | 0.0 | 0.00 | 0.66 | 0.03 | 92 | 1010.8 |
| 20260510073707 | 9 | 90 | 0.0 | 0.0 | 0.00 | 0.66 | 0.03 | 92 | 1010.9 |
| 20260510073205 | 9 | 90 | 0.0 | 0.0 | 0.00 | 0.66 | 0.03 | 92 | 1010.9 |
| 20260510072705 | 9 | 90 | 0.0 | 0.0 | 0.00 | 0.66 | 0.03 | 92 | 1011.0 |
| 20260510071705 | 9 | 90 | 0.0 | 0.0 | 0.00 | 0.69 | 0.03 | 92 | 1011.1 |
| 20260510071203 | 9 | 90 | 0.0 | 0.0 | 0.00 | 0.71 | 0.03 | 92 | 1011.0 |
| 20260510070707 | 9 | 90 | 0.0 | 0.0 | 0.00 | 0.71 | 0.03 | 92 | 1011.1 |
| 20260510070204 | 9 | 90 | 0.0 | 1.6 | 0.00 | 0.74 | 0.03 | 92 | 1011.1 |
| 20260510065705 | 9 | 90 | 0.0 | 1.6 | 0.00 | 0.74 | 0.03 | 92 | 1011.0 |
| 20260510065204 | 9 | 90 | 0.0 | 1.6 | 0.00 | 0.74 | 0.03 | 92 | 1011.1 |
| 20260510064706 | 8 | 90 | 0.0 | 1.6 | 0.00 | 0.74 | 0.03 | 92 | 1011.1 |
| 20260510064204 | 8 | 90 | 0.0 | 0.0 | 0.00 | 0.74 | 0.03 | 92 | 1010.7 |
| 20260510063703 | 8 | 90 | 0.0 | 0.0 | 0.03 | 0.74 | 0.03 | 92 | 1010.6 |
| 20260510063205 | 8 | 90 | 0.0 | 0.0 | 0.03 | 0.74 | 0.03 | 92 | 1010.7 |
| 20260510062705 | 8 | 90 | 0.0 | 0.0 | 0.03 | 0.74 | 0.03 | 92 | 1010.6 |
| 20260510061703 | 8 | 90 | 0.0 | 0.0 | 0.03 | 0.74 | 0.03 | 92 | 1010.7 |
| 20260510061205 | 8 | 90 | 0.0 | 0.0 | 0.03 | 0.74 | 0.03 | 92 | 1010.8 |
| 20260510060705 | 8 | 90 | 0.0 | 0.0 | 0.03 | 0.74 | 0.03 | 92 | 1010.7 |
| 20260510060205 | 8 | 90 | 0.0 | 0.0 | 0.03 | 0.74 | 0.03 | 92 | 1010.7 |
| 20260510055704 | 8 | 90 | 0.0 | 0.0 | 0.03 | 0.71 | 0.03 | 92 | 1010.8 |
| 20260510055205 | 8 | 90 | 0.0 | 0.0 | 0.03 | 0.71 | 0.03 | 92 | 1010.7 |
| 20260510054705 | 8 | 90 | 0.0 | 0.0 | 0.03 | 0.71 | 0.03 | 92 | 1010.8 |
| 20260510054206 | 8 | 90 | 0.0 | 0.0 | 0.03 | 0.71 | 0.00 | 92 | 1010.7 |
| 20260510053703 | 8 | 90 | 0.0 | 0.0 | 0.00 | 0.71 | 0.00 | 92 | 1010.5 |
| 20260510053205 | 8 | 90 | 0.0 | 0.0 | 0.00 | 0.71 | 0.00 | 92 | 1010.5 |
| 20260510052205 | 8 | 90 | 0.0 | 0.0 | 0.00 | 0.71 | 0.00 | 92 | 1010.1 |
| 20260510051704 | 8 | 90 | 0.0 | 0.0 | 0.00 | 0.71 | 0.00 | 92 | 1010.0 |
| 20260510051206 | 8 | 90 | 0.0 | 0.0 | 0.00 | 0.71 | 0.00 | 92 | 1010.1 |
| 20260510050707 | 8 | 90 | 0.0 | 0.0 | 0.00 | 0.71 | 0.00 | 92 | 1010.1 |
| 20260510050205 | 8 | 90 | 0.0 | 0.0 | 0.00 | 0.71 | 0.00 | 92 | 1010.1 |
| 20260510045706 | 8 | 90 | 0.0 | 0.0 | 0.00 | 0.71 | 0.00 | 92 | 1010.3 |
| 20260510045203 | 8 | 90 | 0.0 | 0.0 | 0.00 | 0.71 | 0.00 | 92 | 1010.4 |
| 20260510044705 | 8 | 90 | 0.0 | 0.0 | 0.00 | 0.71 | 0.00 | 92 | 1010.3 |
| 20260510044205 | 8 | 90 | 0.0 | 0.0 | 0.00 | 0.71 | 0.00 | 92 | 1010.3 |
| 20260510043152 | 8 | 90 | 0.0 | 0.0 | 0.00 | 0.71 | 0.00 | 92 | 1010.2 |
| 20260510042646 | 8 | 90 | 0.0 | 0.0 | 0.00 | 0.71 | 0.00 | 92 | 1010.2 |
| 20260510041635 | 8 | 90 | 0.0 | 0.0 | 0.00 | 0.71 | 0.00 | 92 | 1010.2 |
| 20260510041134 | 8 | 90 | 0.0 | 0.0 | 0.00 | 0.71 | 0.00 | 92 | 1010.2 |
| 20260510040638 | 8 | 90 | 0.0 | 0.0 | 0.00 | 0.71 | 0.00 | 91 | 1010.2 |
| 20260510035704 | 8 | 90 | 0.0 | 0.0 | 0.00 | 0.71 | 0.71 | 92 | 1010.2 |
| 20260510035203 | 8 | 90 | 0.0 | 0.0 | 0.00 | 0.71 | 0.71 | 92 | 1010.1 |
| 20260510034704 | 8 | 90 | 0.0 | 0.0 | 0.00 | 0.71 | 0.71 | 92 | 1010.2 |
| 20260510034204 | 8 | 90 | 0.0 | 0.0 | 0.00 | 0.71 | 0.71 | 92 | 1010.2 |
| 20260510033203 | 8 | 90 | 0.0 | 0.0 | 0.00 | 0.71 | 0.71 | 91 | 1010.1 |
| 20260510032205 | 8 | 90 | 0.0 | 0.0 | 0.00 | 0.71 | 0.71 | 91 | 1010.1 |
| 20260510031705 | 8 | 90 | 0.0 | 0.0 | 0.00 | 0.71 | 0.71 | 91 | 1010.2 |
| 20260510031205 | 8 | 90 | 0.0 | 0.0 | 0.00 | 0.71 | 0.71 | 91 | 1010.2 |
| 20260510030706 | 8 | 90 | 0.0 | 0.0 | 0.00 | 0.71 | 0.71 | 91 | 1010.3 |
| 20260510030205 | 8 | 90 | 0.0 | 1.6 | 0.00 | 0.71 | 0.71 | 91 | 1010.2 |
| 20260510025705 | 8 | 90 | 0.0 | 1.6 | 0.00 | 0.71 | 0.71 | 91 | 1010.2 |
| 20260510025204 | 8 | 90 | 0.0 | 1.6 | 0.00 | 0.71 | 0.71 | 91 | 1010.1 |
| 20260510024704 | 9 | 90 | 0.0 | 0.0 | 0.00 | 0.71 | 0.71 | 91 | 1010.2 |
| 20260510023205 | 9 | 90 | 0.0 | 0.0 | 0.00 | 0.71 | 0.71 | 91 | 1010.3 |
| 20260510022207 | 9 | 90 | 0.0 | 1.6 | 0.00 | 0.71 | 0.71 | 91 | 1010.1 |
| 20260510021705 | 9 | 90 | 0.0 | 1.6 | 0.00 | 0.71 | 0.71 | 91 | 1010.1 |
| 20260510021206 | 9 | 90 | 0.0 | 1.6 | 0.00 | 0.71 | 0.71 | 91 | 1010.0 |
| 20260510020705 | 10 | 90 | 0.0 | 1.6 | 0.00 | 0.71 | 0.71 | 91 | 1010.2 |
| 20260510020203 | 10 | 90 | 0.0 | 1.6 | 0.00 | 0.71 | 0.71 | 91 | 1010.1 |
| 20260510015203 | 10 | 90 | 0.0 | 1.6 | 0.00 | 0.71 | 0.71 | 91 | 1010.0 |
| 20260510014704 | 10 | 90 | 0.0 | 1.6 | 0.00 | 0.71 | 0.71 | 91 | 1010.0 |
| 20260510014204 | 10 | 90 | 0.0 | 0.0 | 0.00 | 0.71 | 0.71 | 91 | 1010.1 |
| 20260510013705 | 10 | 90 | 0.0 | 0.0 | 0.00 | 0.71 | 0.71 | 91 | 1010.2 |
| 20260510013205 | 10 | 90 | 0.0 | 0.0 | 0.00 | 0.71 | 0.71 | 91 | 1010.2 |
| 20260510012705 | 10 | 90 | 0.0 | 0.0 | 0.00 | 0.71 | 0.71 | 91 | 1010.1 |
| 20260510012206 | 10 | 90 | 0.0 | 0.0 | 0.00 | 0.71 | 0.71 | 91 | 1010.0 |
| 20260510011705 | 10 | 90 | 0.0 | 0.0 | 0.00 | 0.71 | 0.71 | 91 | 1009.9 |
| 20260510010704 | 10 | 90 | 0.0 | 0.0 | 0.00 | 0.71 | 0.71 | 91 | 1009.9 |
| 20260510005703 | 11 | 90 | 0.0 | 1.6 | 0.00 | 0.71 | 0.71 | 91 | 1009.7 |
| 20260510004705 | 11 | 90 | 0.0 | 0.0 | 0.00 | 0.71 | 0.71 | 91 | 1009.8 |
| 20260510004205 | 11 | 90 | 0.0 | 1.6 | 0.00 | 0.71 | 0.71 | 91 | 1009.6 |
| 20260510003206 | 11 | 90 | 0.0 | 1.6 | 0.00 | 0.71 | 0.71 | 91 | 1009.6 |
| 20260510002704 | 11 | 90 | 0.0 | 6.4 | 0.00 | 0.71 | 0.71 | 91 | 1009.3 |
| 20260510002205 | 11 | 91 | 1.6 | 6.4 | 0.00 | 0.71 | 0.71 | 91 | 1009.3 |
| 20260510001704 | 11 | 94 | 1.6 | 6.4 | 0.00 | 0.71 | 0.71 | 91 | 1009.3 |
| 20260510001205 | 11 | 57 | 1.6 | 4.8 | 0.00 | 0.71 | 0.71 | 91 | 1009.2 |
| 20260510000707 | 11 | 101 | 0.0 | 4.8 | 0.00 | 0.71 | 0.71 | 91 | 1009.0 |
| 20260510000205 | 11 | 37 | 0.0 | 1.6 | 0.00 | 0.71 | 0.71 | 91 | 1009.0 |
| 20260509235706 | 11 | 110 | 0.0 | 3.2 | 0.00 | 0.71 | 0.71 | 91 | 1009.2 |
| 20260509235203 | 11 | 74 | 0.0 | 4.8 | 0.00 | 0.71 | 0.71 | 91 | 1009.0 |
| 20260509234703 | 12 | 67 | 1.6 | 4.8 | 0.00 | 0.71 | 0.71 | 91 | 1009.0 |
| 20260509234205 | 12 | 158 | 1.6 | 4.8 | 0.00 | 0.71 | 0.71 | 91 | 1009.1 |
| 20260509233205 | 12 | 80 | 1.6 | 4.8 | 0.00 | 0.71 | 0.71 | 91 | 1009.0 |
| 20260509232704 | 12 | 135 | 1.6 | 4.8 | 0.00 | 0.71 | 0.71 | 91 | 1009.1 |
| 20260509231705 | 12 | 88 | 1.6 | 4.8 | 0.00 | 0.71 | 0.71 | 91 | 1008.9 |
| 20260509231205 | 12 | 84 | 1.6 | 4.8 | 0.00 | 0.71 | 0.71 | 91 | 1008.9 |
| 20260509230706 | 12 | 102 | 1.6 | 4.8 | 0.00 | 0.71 | 0.71 | 91 | 1009.0 |
| 20260509225702 | 12 | 90 | 0.0 | 3.2 | 0.00 | 0.71 | 0.71 | 91 | 1009.0 |
| 20260509225203 | 12 | 152 | 0.0 | 3.2 | 0.00 | 0.71 | 0.71 | 91 | 1009.0 |
| 20260509224703 | 12 | 191 | 0.0 | 3.2 | 0.00 | 0.71 | 0.71 | 91 | 1009.0 |
| 20260509224204 | 12 | 85 | 0.0 | 3.2 | 0.00 | 0.71 | 0.71 | 91 | 1009.0 |
| 20260509223705 | 12 | 67 | 0.0 | 3.2 | 0.00 | 0.71 | 0.71 | 91 | 1009.1 |
| 20260509223202 | 12 | 145 | 0.0 | 3.2 | 0.00 | 0.71 | 0.71 | 91 | 1009.1 |
| 20260509222703 | 12 | 148 | 0.0 | 3.2 | 0.00 | 0.71 | 0.71 | 91 | 1009.1 |
| 20260509222205 | 12 | 51 | 0.0 | 3.2 | 0.00 | 0.71 | 0.71 | 91 | 1009.1 |
| 20260509221704 | 12 | 38 | 0.0 | 3.2 | 0.00 | 0.71 | 0.71 | 91 | 1009.1 |
| 20260509221204 | 12 | 65 | 0.0 | 3.2 | 0.00 | 0.71 | 0.71 | 91 | 1009.0 |
| 20260509220705 | 12 | 66 | 0.0 | 4.8 | 0.00 | 0.71 | 0.71 | 91 | 1009.1 |
| 20260509220204 | 12 | 150 | 1.6 | 4.8 | 0.00 | 0.71 | 0.71 | 91 | 1009.2 |
| 20260509215706 | 12 | 118 | 1.6 | 3.2 | 0.00 | 0.71 | 0.71 | 91 | 1009.2 |
| 20260509214204 | 12 | 69 | 0.0 | 3.2 | 0.03 | 0.71 | 0.71 | 91 | 1009.3 |
| 20260509213705 | 12 | 101 | 0.0 | 3.2 | 0.03 | 0.71 | 0.71 | 91 | 1009.5 |
| 20260509212706 | 12 | 102 | 0.0 | 4.8 | 0.05 | 0.71 | 0.71 | 91 | 1009.3 |
| 20260509211703 | 12 | 109 | 0.0 | 3.2 | 0.08 | 0.71 | 0.71 | 91 | 1009.3 |
| 20260509211204 | 12 | 116 | 0.0 | 3.2 | 0.08 | 0.71 | 0.71 | 91 | 1009.5 |
| 20260509210706 | 12 | 81 | 0.0 | 3.2 | 0.10 | 0.71 | 0.71 | 91 | 1009.5 |
| 20260509210204 | 12 | 237 | 0.0 | 0.0 | 0.10 | 0.71 | 0.71 | 91 | 1009.4 |
| 20260509205703 | 12 | 252 | 0.0 | 0.0 | 0.10 | 0.71 | 0.69 | 91 | 1009.3 |
| 20260509204705 | 12 | 251 | 0.0 | 1.6 | 0.10 | 0.69 | 0.69 | 91 | 1009.3 |
| 20260509204205 | 12 | 248 | 0.0 | 1.6 | 0.10 | 0.69 | 0.69 | 91 | 1009.6 |
| 20260509203203 | 12 | 248 | 0.0 | 0.0 | 0.10 | 0.66 | 0.66 | 90 | 1009.8 |
| 20260509202704 | 12 | 248 | 0.0 | 0.0 | 0.10 | 0.66 | 0.66 | 90 | 1009.8 |
| 20260509202206 | 12 | 248 | 0.0 | 1.6 | 0.10 | 0.66 | 0.66 | 90 | 1009.9 |
| 20260509201705 | 12 | 248 | 0.0 | 1.6 | 0.08 | 0.64 | 0.64 | 90 | 1009.9 |
| 20260509201205 | 12 | 248 | 0.0 | 1.6 | 0.10 | 0.64 | 0.64 | 90 | 1009.9 |
| 20260509200705 | 12 | 248 | 0.0 | 1.6 | 0.08 | 0.61 | 0.61 | 90 | 1009.9 |
| 20260509200203 | 12 | 248 | 0.0 | 6.4 | 0.08 | 0.61 | 0.61 | 90 | 1009.8 |
| 20260509195705 | 12 | 243 | 0.0 | 6.4 | 0.10 | 0.61 | 0.61 | 90 | 1010.0 |
| 20260509195203 | 12 | 284 | 0.0 | 1.6 | 0.10 | 0.58 | 0.58 | 90 | 1010.2 |
| 20260509194706 | 12 | 316 | 0.0 | 1.6 | 0.13 | 0.58 | 0.58 | 90 | 1010.3 |
| 20260509194204 | 12 | 37 | 0.0 | 3.2 | 0.13 | 0.58 | 0.56 | 90 | 1010.4 |
| 20260509193705 | 12 | 37 | 0.0 | 4.8 | 0.13 | 0.56 | 0.56 | 90 | 1010.4 |
| 20260509193203 | 12 | 31 | 0.0 | 4.8 | 0.15 | 0.56 | 0.56 | 90 | 1010.5 |
| 20260509192707 | 12 | 230 | 0.0 | 4.8 | 0.15 | 0.56 | 0.56 | 90 | 1010.6 |
| 20260509192206 | 12 | 231 | 0.0 | 4.8 | 0.18 | 0.56 | 0.56 | 90 | 1010.7 |
| 20260509191703 | 12 | 315 | 0.0 | 3.2 | 0.18 | 0.56 | 0.56 | 90 | 1010.7 |
| 20260509191205 | 12 | 323 | 0.0 | 3.2 | 0.15 | 0.53 | 0.53 | 90 | 1010.7 |
| 20260509190706 | 12 | 221 | 1.6 | 4.8 | 0.18 | 0.53 | 0.53 | 90 | 1010.9 |
| 20260509185708 | 12 | 223 | 1.6 | 3.2 | 0.18 | 0.51 | 0.51 | 90 | 1011.1 |
| 20260509182655 | 12 | 261 | 0.0 | 3.2 | 0.13 | 0.41 | 0.41 | 91 | 1011.1 |
| 20260509182156 | 12 | 217 | 0.0 | 3.2 | 0.10 | 0.38 | 0.38 | 91 | 1011.1 |
| 20260509181655 | 12 | 5 | 0.0 | 3.2 | 0.13 | 0.38 | 0.38 | 91 | 1011.0 |
| 20260509181153 | 12 | 5 | 0.0 | 1.6 | 0.13 | 0.38 | 0.38 | 90 | 1010.9 |
| 20260509180654 | 12 | 5 | 0.0 | 1.6 | 0.10 | 0.36 | 0.36 | 90 | 1010.8 |
| 20260509175651 | 12 | 5 | 0.0 | 1.6 | 0.08 | 0.36 | 0.33 | 91 | 1010.8 |
| 20260509175148 | 12 | 11 | 0.0 | 1.6 | 0.08 | 0.36 | 0.33 | 91 | 1010.7 |
| 20260509174149 | 12 | 28 | 0.0 | 1.6 | 0.05 | 0.33 | 0.30 | 91 | 1010.7 |
| 20260509173644 | 12 | 28 | 0.0 | 1.6 | 0.08 | 0.33 | 0.30 | 91 | 1010.6 |
| 20260509173144 | 12 | 28 | 0.0 | 1.6 | 0.05 | 0.30 | 0.28 | 91 | 1010.5 |
| 20260509172643 | 12 | 33 | 0.0 | 1.6 | 0.05 | 0.30 | 0.28 | 91 | 1010.5 |
| 20260509172144 | 12 | 33 | 0.0 | 1.6 | 0.05 | 0.30 | 0.25 | 91 | 1010.4 |
| 20260509171644 | 12 | 81 | 0.0 | 1.6 | 0.03 | 0.28 | 0.25 | 91 | 1010.5 |
| 20260509171144 | 12 | 81 | 0.0 | 1.6 | 0.05 | 0.28 | 0.25 | 91 | 1010.5 |
| 20260509170644 | 12 | 81 | 0.0 | 1.6 | 0.05 | 0.28 | 0.25 | 91 | 1010.7 |
| 20260509170144 | 12 | 81 | 0.0 | 1.6 | 0.05 | 0.28 | 0.25 | 91 | 1010.6 |
| 20260509165140 | 12 | 111 | 0.0 | 1.6 | 0.08 | 0.28 | 0.25 | 91 | 1010.7 |